Tracking 21476 objects as of 30-Sep-2020
HD Live streaming from Space Station
objects crossing your sky now

IRIDIUM 33 DEB

Track IRIDIUM 33 DEB now!
10-day predictions


NORAD ID: 34099
Int'l Code: 1997-051DJ
Perigee: 682.9 km
Apogee: 701.5 km
Inclination: 86.4 °
Period: 98.5 minutes
Semi major axis: 7063 km
RCS: 0.027 m2 (small)
Launch date: September 14, 1997
Source: United States (US)
Launch site: TYURATAM MISSILE AND SPACE COMPLEX (TTMTR)

Note: This is SATELLITE DEBRIS
aabbcc
Your satellite tracking list
Your tracking list is empty




NASA's NSSDC Master Catalog

Two Line Element Set (TLE):
1 34099U 97051DJ  20273.48633862 +.00003009 +00000-0 +58884-3 0  9999
2 34099 086.3621 097.3607 0013147 350.5456 069.5430 14.62507889613770
Source of the keplerian elements: AFSPC